Location: Devore Heights
(34.2372°N, 117.4156°W)
Time: 04:39:36
(UTC+00:00)

A-11 Canister half - Pass Details

Date: 22 September 2024
Orbit: 1515 x 1684 km, 47.2° (Epoch: 08 October)

Event Time Altitude Azimuth Distance (km) Brightness Sun altitude
Rises 04:08:23 0° 294° (WNW) 4,709 12.8 -29.4°
Reaches altitude 10° 04:11:48 10° 302° (WNW) 3,708 11.9 -30.0°
Maximum altitude 04:20:20 38° 9° (N) 2,162 9.8 -31.6°
Enters shadow 04:23:19 31° 45° (NE) 2,405 9.8 -32.2°
